sat.trackr.live / text

‹ back to catalog

STARLINK-2329

NORAD 47873 · 2021-021P

PAYLOAD ACTIVE UNKNOWN

§ Identity

Operator
Country
US
Launch date
2021-03-14
Launch site
AFETR
Launch vehicle
Mass (kg)
RCS (m²)

Purposes: comms

External: N2YO · Heavens-Above · Gunter

§ Orbital elements

Epoch: 2026-09-09T22:53:17.832768Z

Period
94.01 min
Inclination
53.1600°
Eccentricity
0.0001107
Mean motion
15.31711303 rev/d
Perigee alt
469.9 km
Apogee alt
471.5 km
Semi-major
6,848.8 km
B*
2.6732e-4
RAAN
117.9133°
Arg perigee
87.0673°
Mean anomaly
273.0455°
Rev number
30,465

§ Raw data

STARLINK-23291 47873U 21021P   26252.95367862  .00007942  00000+0  26732-3 0  99922 47873  53.1600 117.9133 0001107  87.0673 273.0455 15.31711303304650

JSON: /api/v1/satellites/47873 · /tle

For live sub-satellite position, see the globe view (requires WebGL).

§ Visibility from observer

Set your observer location to see the next 7 days of passes ≥ 10°. The values pass through the URL so the page stays shareable.

No JS? Fill the form by hand. The geolocation button needs JavaScript.